Tracking 28790 objects as of 19-Apr-2024
HD Live streaming from Space Station
objects crossing your sky now

SL-14 R/B

Track SL-14 R/B now!
10-day predictions


NORAD ID: 25369
Int'l Code: 1998-036G
Perigee: 1,348.4 km
Apogee: 1,897.4 km
Inclination: 82.6 °
Period: 118.5 minutes
Semi major axis: 7993 km
RCS: 6.5125 m2 (large)
Launch date: June 15, 1998
Source: Commonwealth of Independent States (former USSR) (CIS)
Launch site: PLESETSK MISSILE AND SPACE COMPLEX (PKMTR)

Note: This is a ROCKET BODY
Your satellite tracking list
Your tracking list is empty




NASA's NSSDC Master Catalog

Two Line Element Set (TLE):
1 25369U 98036G   24109.64945684  .00000047  00000-0  33482-3 0  9997
2 25369  82.5922 165.6351 0343346 333.0212 143.1960 12.14688413145708
Source of the keplerian elements: AFSPC